Zurück zum Katalog

KUIPER-00156

AktivKommunikationLEO
NORAD 65775·PAYLOAD·🇺🇸 United States

Gestartet Sep 25, 2025 von Cape Canaveral Space Force Station

Loading…

Nächste Überflüge (nächste 24 Stunden)

TLE

AktuellSource: CelesTrak SupGP

Epoche: Sep 14, 2026, 13:01 UTC

1 65775C 25217P   26257.54246528  .00005857  00000+0  76693-3 0  2570
2 65775  51.9011 270.5677 0000541  71.0919 252.3589 14.79913487    18

Verfolge KUIPER-00156 in Echtzeit mit AllMySat

Download on the App Store